Weather History for KCLE - May, 2013

Change the Weather History Date:

Monday, May 27, 2013

  Actual Average Record
Temperature  
Mean Temperature 49 °F 63 °F  
Max Temperature 59 °F 73 °F 90 °F (1967)
Min Temperature 39 °F 54 °F 35 °F (1969)
Degree Days  
Heating Degree Days 16 4  
Month to date heating degree days 155 195  
Since 1 July heating degree days 5770 5706  
Cooling Degree Days 0 3  
Month to date cooling degree days 68 39  
Year to date cooling degree days 70 50  
Moisture  
Dew Point 42 °F    
Average Humidity 61    
Maximum Humidity 79    
Minimum Humidity 43    
Precipitation  
Precipitation 0.14 in 0.12 in - ()
Month to date precipitation 1.57 3.16  
Year to date precipitation 11.79 14.64  
Snow  
Snow 0.00 in 0.00 in - ()
Month to date snowfall 0.0 0.1  
Since 1 July snowfall 51.7 68.2  
Snow Depth 0.00 in    
Sea Level Pressure  
Sea Level Pressure 30.22 in    
Wind  
Wind Speed 8 mph (SE)    
Max Wind Speed 17 mph    
Max Gust Speed 25 mph    
Visibility 10 miles    
Events Rain    
T = Trace of Precipitation, MM = Missing Value Source: NWS Daily Summary

Daily Weather History Graph

Daily Weather History Graph

Search for Another Location

Airport or City:

Trip Planner

Search our weather history database for the weather conditions in past years. The results will help you decide how hot, cold, wet, or windy it might be!

Date:

Astronomy

May. 27, 2013 Rise Set
Actual Time 5:58 AM EDT 8:50 PM EDT
Civil Twilight 5:26 AM EDT 9:23 PM EDT
Nautical Twilight 4:44 AM EDT 10:05 PM EDT
Astronomical Twilight 3:57 AM EDT 10:53 PM EDT
Moon 11:28 PM EDT (5/27) 8:35 AM EDT (5/27)
Length of Visible Light 15h 57m
Length of Day
14h 52m
Waning Gibbous, 91% of the Moon is Illuminated
May 27
Waning Gibbous
May 31
Last Quarter
Jun 8
New
Jun 16
First Quarter
Jun 23
Full

Hourly Weather History & Observations

Time (EDT) Temp. Windchill Dew Point Humidity Pressure Visibility Wind Dir Wind Speed Gust Speed Precip Events Conditions
12:51 AM 48.0 °F - 37.9 °F 68% 30.30 in 10.0 mi SSE 3.5 mph - N/A   Mostly Cloudy
1:51 AM 46.9 °F - 37.9 °F 71% 30.30 in 10.0 mi Calm Calm - N/A   Mostly Cloudy
2:51 AM 45.0 °F - 37.0 °F 74% 30.29 in 10.0 mi Calm Calm - N/A   Scattered Clouds
3:51 AM 44.1 °F 42.5 °F 37.0 °F 76% 30.28 in 10.0 mi SE 3.5 mph - N/A   Scattered Clouds
4:51 AM 44.1 °F 42.5 °F 37.0 °F 76% 30.27 in 10.0 mi SE 3.5 mph - N/A   Mostly Cloudy
5:51 AM 41.0 °F - 35.1 °F 79% 30.28 in 10.0 mi Calm Calm - N/A   Mostly Cloudy
6:51 AM 44.1 °F 42.5 °F 37.0 °F 76% 30.28 in 10.0 mi SE 3.5 mph - N/A   Mostly Cloudy
7:51 AM 52.0 °F - 39.0 °F 61% 30.28 in 10.0 mi SSE 4.6 mph - N/A   Mostly Cloudy
8:51 AM 57.0 °F - 36.0 °F 45% 30.28 in 10.0 mi SSE 10.4 mph - N/A   Overcast
9:51 AM 57.9 °F - 36.0 °F 44% 30.28 in 10.0 mi South 9.2 mph - N/A   Overcast
10:51 AM 57.9 °F - 37.0 °F 46% 30.28 in 10.0 mi SSE 5.8 mph - N/A   Overcast
11:51 AM 57.9 °F - 37.9 °F 47% 30.27 in 10.0 mi SSE 10.4 mph - N/A   Overcast
12:51 PM 57.0 °F - 43.0 °F 59% 30.26 in 10.0 mi South 11.5 mph - 0.00 in Rain Light Rain
1:51 PM 55.0 °F - 45.0 °F 69% 30.22 in 10.0 mi South 10.4 mph - 0.00 in Rain Light Rain
2:51 PM 55.9 °F - 46.9 °F 72% 30.22 in 10.0 mi SSE 6.9 mph - 0.01 in Rain Light Rain
3:51 PM 57.9 °F - 45.0 °F 62% 30.20 in 10.0 mi SE 11.5 mph - 0.00 in   Overcast
4:51 PM 59.0 °F - 45.0 °F 60% 30.19 in 10.0 mi SE 8.1 mph - 0.00 in   Overcast
5:51 PM 57.9 °F - 46.0 °F 65% 30.15 in 10.0 mi ESE 10.4 mph - 0.00 in   Overcast
6:51 PM 57.9 °F - 45.0 °F 62% 30.14 in 10.0 mi ESE 10.4 mph - N/A   Overcast
7:51 PM 57.9 °F - 46.0 °F 65% 30.12 in 10.0 mi ESE 8.1 mph - 0.00 in Rain Light Rain
8:51 PM 57.0 °F - 46.9 °F 69% 30.09 in 10.0 mi SE 9.2 mph - 0.00 in Rain Light Rain
9:51 PM 55.0 °F - 48.9 °F 80% 30.10 in 8.0 mi SE 9.2 mph - 0.02 in Rain Rain
10:51 PM 55.0 °F - 48.9 °F 80% 30.08 in 10.0 mi SE 12.7 mph - 0.04 in Rain Light Rain
11:51 PM 55.0 °F - 48.9 °F 80% 30.06 in 10.0 mi SE 12.7 mph - 0.04 in Rain Light Rain